| time (UTC) | temp C | wind direction | speed KPH | gust KPH | rain 1hr cm | rain 24hr cm | rain mn cm | humidity % | barometer mb |
| 20260502194749 | 6 | 205 | 3.2 | 9.7 | 0.00 | 0.00 | 0.00 | 69 | 1017.8 |
| 20260502194247 | 6 | 277 | 4.8 | 9.7 | 0.00 | 0.00 | 0.00 | 70 | 1017.5 |
| 20260502193743 | 6 | 19 | 3.2 | 6.4 | 0.00 | 0.00 | 0.00 | 71 | 1017.8 |
| 20260502193240 | 6 | 250 | 3.2 | 4.8 | 0.00 | 0.00 | 0.00 | 67 | 1017.6 |
| 20260502192740 | 6 | 32 | 3.2 | 6.4 | 0.00 | 0.00 | 0.00 | 72 | 1017.6 |
| 20260502192238 | 6 | 51 | 9.7 | 11.3 | 0.00 | 0.00 | 0.00 | 71 | 1017.8 |
| 20260502191735 | 6 | 213 | 1.6 | 9.7 | 0.00 | 0.00 | 0.00 | 73 | 1017.9 |
| 20260502191233 | 6 | 30 | 6.4 | 9.7 | 0.00 | 0.00 | 0.00 | 74 | 1017.8 |
| 20260502190730 | 5 | 322 | 4.8 | 12.9 | 0.00 | 0.00 | 0.00 | 75 | 1017.9 |
| 20260502190227 | 5 | 301 | 9.7 | 14.5 | 0.00 | 0.00 | 0.00 | 74 | 1017.8 |
| 20260502185727 | 5 | 318 | 12.9 | 14.5 | 0.00 | 0.00 | 0.00 | 76 | 1018.1 |
| 20260502185224 | 6 | 251 | 4.8 | 6.4 | 0.00 | 0.00 | 0.00 | 79 | 1017.8 |
| 20260502184720 | 5 | 5 | 6.4 | 12.9 | 0.00 | 0.00 | 0.00 | 80 | 1017.7 |
| 20260502184216 | 5 | 278 | 3.2 | 11.3 | 0.00 | 0.00 | 0.00 | 79 | 1018.1 |
| 20260502183713 | 5 | 40 | 3.2 | 6.4 | 0.00 | 0.00 | 0.00 | 81 | 1018.0 |
| 20260502183208 | 5 | 12 | 3.2 | 6.4 | 0.00 | 0.00 | 0.00 | 83 | 1018.0 |
| 20260502182704 | 5 | 0 | 3.2 | 9.7 | 0.00 | 0.00 | 0.00 | 83 | 1018.2 |
| 20260502182159 | 5 | 303 | 8.0 | 9.7 | 0.00 | 0.00 | 0.00 | 82 | 1018.0 |
| 20260502181657 | 5 | 220 | 6.4 | 12.9 | 0.00 | 0.00 | 0.00 | 83 | 1018.0 |
| 20260502181156 | 5 | 297 | 4.8 | 12.9 | 0.00 | 0.00 | 0.00 | 83 | 1018.2 |
| 20260502180653 | 5 | 267 | 6.4 | 12.9 | 0.00 | 0.00 | 0.00 | 83 | 1018.1 |
| 20260502180150 | 5 | 210 | 6.4 | 11.3 | 0.00 | 0.00 | 0.00 | 82 | 1018.0 |
| 20260502170114 | 5 | 139 | 3.2 | 9.7 | 0.00 | 0.00 | 0.00 | 79 | 1018.0 |
| 20260502164101 | 5 | 310 | 8.0 | 11.3 | 0.00 | 0.00 | 0.00 | 77 | 1018.0 |
| 20260502163556 | 6 | 15 | 4.8 | 9.7 | 0.00 | 0.00 | 0.00 | 78 | 1017.8 |
| 20260502163054 | 5 | 269 | 9.7 | 11.3 | 0.00 | 0.00 | 0.00 | 75 | 1017.9 |
| 20260502162550 | 5 | 267 | 6.4 | 14.5 | 0.00 | 0.00 | 0.00 | 75 | 1017.9 |
| 20260502162048 | 5 | 299 | 6.4 | 9.7 | 0.00 | 0.00 | 0.00 | 76 | 1017.9 |
| 20260502161544 | 6 | 228 | 1.6 | 6.4 | 0.00 | 0.00 | 0.00 | 76 | 1018.2 |
| 20260502161042 | 5 | 350 | 3.2 | 4.8 | 0.00 | 0.00 | 0.00 | 77 | 1018.1 |
| 20260502160540 | 5 | 165 | 0.0 | 4.8 | 0.00 | 0.00 | 0.00 | 78 | 1018.0 |
| 20260502151953 | 5 | 250 | 6.4 | 9.7 | 0.00 | 0.00 | 0.00 | 78 | 1017.9 |
| 20260502151449 | 5 | 355 | 4.8 | 9.7 | 0.00 | 0.00 | 0.00 | 77 | 1017.7 |
| 20260502150947 | 5 | 10 | 8.0 | 12.9 | 0.00 | 0.00 | 0.00 | 78 | 1017.9 |
| 20260502150444 | 5 | 339 | 8.0 | 11.3 | 0.00 | 0.00 | 0.00 | 80 | 1017.9 |
| 20260502130329 | 3 | 232 | 6.4 | 6.4 | 0.00 | 0.00 | 0.00 | 84 | 1017.4 |
| 20260502123814 | 2 | 273 | 1.6 | 6.4 | 0.00 | 0.00 | 0.00 | 85 | 1017.3 |
| 20260502123312 | 2 | 174 | 0.0 | 6.4 | 0.00 | 0.00 | 0.00 | 85 | 1017.3 |
| 20260502122808 | 2 | 252 | 4.8 | 11.3 | 0.00 | 0.00 | 0.00 | 86 | 1017.2 |
| 20260502122306 | 2 | 226 | 3.2 | 3.2 | 0.00 | 0.00 | 0.00 | 86 | 1017.1 |
| 20260502121803 | 1 | 30 | 6.4 | 9.7 | 0.00 | 0.00 | 0.00 | 86 | 1017.1 |
| 20260502121300 | 1 | 206 | 3.2 | 9.7 | 0.00 | 0.00 | 0.00 | 86 | 1017.1 |
| 20260502120757 | 1 | 296 | 6.4 | 9.7 | 0.00 | 0.00 | 0.00 | 85 | 1017.4 |
| 20260502120253 | 1 | 231 | 4.8 | 11.3 | 0.00 | 0.00 | 0.00 | 86 | 1017.1 |
| 20260502115751 | 1 | 50 | 3.2 | 9.7 | 0.00 | 0.00 | 0.00 | 86 | 1017.2 |
| 20260502115248 | 1 | 200 | 1.6 | 3.2 | 0.00 | 0.00 | 0.00 | 87 | 1017.1 |
| 20260502114744 | 1 | 205 | 1.6 | 4.8 | 0.00 | 0.00 | 0.00 | 87 | 1017.2 |
| 20260502114241 | 1 | 258 | 6.4 | 6.4 | 0.00 | 0.00 | 0.00 | 86 | 1017.2 |
| 20260502113738 | 1 | 298 | 6.4 | 11.3 | 0.00 | 0.00 | 0.00 | 87 | 1017.2 |
| 20260502113236 | 1 | 247 | 4.8 | 6.4 | 0.00 | 0.00 | 0.00 | 88 | 1017.3 |
| 20260502112734 | 0 | 197 | 0.0 | 3.2 | 0.00 | 0.00 | 0.00 | 89 | 1017.2 |
| 20260502112231 | 0 | 208 | 1.6 | 3.2 | 0.00 | 0.00 | 0.00 | 89 | 1017.1 |
| 20260502111728 | 0 | 200 | 0.0 | 3.2 | 0.00 | 0.00 | 0.00 | 90 | 1016.9 |
| 20260502111226 | 0 | 207 | 0.0 | 1.6 | 0.00 | 0.00 | 0.00 | 90 | 1017.4 |
| 20260502110723 | 0 | 224 | 1.6 | 3.2 | 0.00 | 0.00 | 0.00 | 91 | 1016.9 |
| 20260502110221 | 0 | 184 | 0.0 | 0.0 | 0.00 | 0.00 | 0.00 | 91 | 1016.9 |
| 20260502105719 | 0 | 218 | 1.6 | 3.2 | 0.00 | 0.00 | 0.00 | 91 | 1017.0 |
| 20260502105215 | 0 | 197 | 0.0 | 1.6 | 0.00 | 0.00 | 0.00 | 90 | 1017.0 |
| 20260502104712 | 0 | 206 | 1.6 | 1.6 | 0.00 | 0.00 | 0.00 | 90 | 1016.9 |
| 20260502104210 | 0 | 209 | 0.0 | 0.0 | 0.00 | 0.00 | 0.00 | 90 | 1016.9 |
| 20260502103707 | 0 | 204 | 1.6 | 1.6 | 0.00 | 0.00 | 0.00 | 90 | 1016.9 |
| 20260502103205 | 0 | 204 | 0.0 | 1.6 | 0.00 | 0.00 | 0.00 | 90 | 1016.9 |
| 20260502102701 | 0 | 229 | 1.6 | 4.8 | 0.00 | 0.00 | 0.00 | 90 | 1017.2 |
| 20260502102158 | 0 | 202 | 1.6 | 3.2 | 0.00 | 0.00 | 0.00 | 89 | 1016.6 |
| 20260502101656 | 1 | 242 | 3.2 | 3.2 | 0.00 | 0.00 | 0.00 | 89 | 1017.1 |
| 20260502101154 | 1 | 73 | 4.8 | 6.4 | 0.00 | 0.00 | 0.00 | 88 | 1016.8 |
| 20260502100652 | 0 | 161 | 0.0 | 4.8 | 0.00 | 0.00 | 0.00 | 89 | 1016.9 |
| 20260502100150 | 1 | 207 | 0.0 | 1.6 | 0.00 | 0.00 | 0.00 | 89 | 1016.6 |
| 20260502091124 | 1 | 206 | 1.6 | 4.8 | 0.00 | 0.00 | 0.00 | 87 | 1016.8 |
| 20260502090621 | 1 | 236 | 3.2 | 3.2 | 0.00 | 0.00 | 0.00 | 87 | 1016.8 |
| 20260502090119 | 1 | 272 | 3.2 | 3.2 | 0.00 | 0.00 | 0.00 | 87 | 1016.6 |
| 20260502071516 | 2 | 215 | 3.2 | 6.4 | 0.00 | 0.00 | 0.00 | 95 | 1016.5 |
| 20260502071014 | 2 | 214 | 3.2 | 4.8 | 0.00 | 0.00 | 0.00 | 96 | 1016.5 |
| 20260502070512 | 2 | 203 | 1.6 | 1.6 | 0.00 | 0.00 | 0.00 | 96 | 1016.6 |
| 20260502070010 | 2 | 212 | 3.2 | 3.2 | 0.00 | 0.00 | 0.00 | 96 | 1016.5 |
| 20260502065508 | 2 | 198 | 1.6 | 3.2 | 0.00 | 0.00 | 0.00 | 96 | 1016.8 |
| 20260502065006 | 2 | 212 | 3.2 | 3.2 | 0.00 | 0.00 | 0.00 | 96 | 1016.6 |
| 20260502064504 | 2 | 231 | 3.2 | 4.8 | 0.00 | 0.00 | 0.00 | 96 | 1017.0 |
| 20260502064000 | 3 | 201 | 3.2 | 4.8 | 0.00 | 0.00 | 0.00 | 96 | 1016.9 |
| 20260502063459 | 3 | 236 | 4.8 | 6.4 | 0.00 | 0.00 | 0.00 | 97 | 1016.9 |
| 20260502062955 | 3 | 163 | 1.6 | 3.2 | 0.00 | 0.00 | 0.00 | 97 | 1016.9 |
| 20260502062452 | 3 | 202 | 3.2 | 3.2 | 0.00 | 0.00 | 0.00 | 97 | 1016.9 |
| 20260502061951 | 2 | 192 | 0.0 | 3.2 | 0.00 | 0.00 | 0.00 | 98 | 1017.0 |
| 20260502061449 | 2 | 198 | 1.6 | 3.2 | 0.00 | 0.00 | 0.00 | 98 | 1017.1 |
| 20260502060944 | 2 | 183 | 0.0 | 1.6 | 0.00 | 0.00 | 0.00 | 98 | 1016.9 |
| 20260502060440 | 2 | 194 | 0.0 | 3.2 | 0.00 | 0.00 | 0.00 | 98 | 1017.0 |
| 20260502055936 | 2 | 182 | 0.0 | 0.0 | 0.00 | 0.00 | 0.00 | 98 | 1017.0 |
| 20260502055435 | 3 | 188 | 1.6 | 1.6 | 0.00 | 0.00 | 0.00 | 98 | 1017.0 |
| 20260502054929 | 3 | 176 | 0.0 | 0.0 | 0.00 | 0.00 | 0.00 | 97 | 1017.2 |
| 20260502054426 | 3 | 184 | 0.0 | 0.0 | 0.00 | 0.00 | 0.00 | 97 | 1017.2 |
| 20260502053924 | 3 | 175 | 0.0 | 1.6 | 0.00 | 0.00 | 0.00 | 97 | 1017.0 |
| 20260502053421 | 3 | 179 | 0.0 | 1.6 | 0.00 | 0.00 | 0.00 | 97 | 1017.1 |
| 20260502052918 | 3 | 182 | 1.6 | 1.6 | 0.00 | 0.00 | 0.00 | 97 | 1017.0 |
| 20260502052416 | 3 | 199 | 0.0 | 1.6 | 0.00 | 0.00 | 0.00 | 97 | 1017.2 |
| 20260502051914 | 3 | 186 | 0.0 | 1.6 | 0.00 | 0.00 | 0.00 | 97 | 1017.1 |
| 20260502051412 | 3 | 186 | 0.0 | 0.0 | 0.00 | 0.00 | 0.00 | 96 | 1017.3 |
| 20260502050909 | 3 | 186 | 0.0 | 0.0 | 0.00 | 0.00 | 0.00 | 96 | 1017.3 |
| 20260502050405 | 3 | 186 | 0.0 | 0.0 | 0.00 | 0.00 | 0.00 | 96 | 1017.1 |
| 20260502045903 | 3 | 186 | 0.0 | 0.0 | 0.00 | 0.00 | 0.00 | 96 | 1017.3 |
| 20260502045359 | 3 | 186 | 0.0 | 1.6 | 0.00 | 0.00 | 0.00 | 96 | 1017.2 |
| 20260502044856 | 4 | 184 | 0.0 | 1.6 | 0.00 | 0.00 | 0.00 | 96 | 1017.2 |
| 20260502044352 | 4 | 170 | 0.0 | 0.0 | 0.00 | 0.00 | 0.00 | 95 | 1017.3 |
| 20260502043849 | 4 | 169 | 0.0 | 1.6 | 0.00 | 0.00 | 0.00 | 94 | 1017.3 |
| 20260502043346 | 4 | 200 | 1.6 | 3.2 | 0.00 | 0.00 | 0.00 | 94 | 1017.5 |
| 20260502042840 | 4 | 204 | 0.0 | 3.2 | 0.00 | 0.00 | 0.00 | 95 | 1017.4 |
| 20260502042338 | 3 | 194 | 0.0 | 1.6 | 0.00 | 0.00 | 0.00 | 96 | 1017.4 |
| 20260502041835 | 3 | 218 | 1.6 | 3.2 | 0.00 | 0.00 | 0.00 | 97 | 1017.3 |
| 20260502041332 | 3 | 184 | 1.6 | 1.6 | 0.00 | 0.00 | 0.00 | 97 | 1017.1 |
| 20260502040830 | 3 | 183 | 0.0 | 0.0 | 0.00 | 0.00 | 0.00 | 97 | 1017.2 |
| 20260502040326 | 3 | 183 | 0.0 | 1.6 | 0.00 | 0.00 | 0.00 | 97 | 1016.9 |
| 20260502035822 | 3 | 184 | 1.6 | 1.6 | 0.00 | 0.18 | 0.18 | 97 | 1017.1 |
| 20260502035319 | 3 | 184 | 0.0 | 0.0 | 0.00 | 0.18 | 0.18 | 96 | 1017.1 |
| 20260502034817 | 3 | 184 | 0.0 | 1.6 | 0.00 | 0.18 | 0.18 | 95 | 1017.2 |
| 20260502034315 | 4 | 196 | 0.0 | 0.0 | 0.00 | 0.18 | 0.18 | 96 | 1017.5 |
| 20260502033813 | 4 | 196 | 0.0 | 0.0 | 0.00 | 0.18 | 0.18 | 96 | 1017.3 |
| 20260502033310 | 4 | 196 | 0.0 | 0.0 | 0.00 | 0.18 | 0.18 | 95 | 1017.3 |
| 20260502032807 | 5 | 196 | 0.0 | 0.0 | 0.00 | 0.18 | 0.18 | 95 | 1017.7 |
| 20260502032305 | 5 | 196 | 0.0 | 0.0 | 0.00 | 0.18 | 0.18 | 95 | 1017.4 |
| 20260502031801 | 5 | 196 | 0.0 | 0.0 | 0.00 | 0.18 | 0.18 | 95 | 1017.3 |
| 20260502031259 | 5 | 196 | 0.0 | 0.0 | 0.00 | 0.18 | 0.18 | 94 | 1017.4 |
| 20260502030757 | 5 | 196 | 0.0 | 0.0 | 0.00 | 0.18 | 0.18 | 93 | 1017.3 |
| 20260502030254 | 5 | 196 | 0.0 | 0.0 | 0.00 | 0.18 | 0.18 | 93 | 1017.3 |
| 20260502025752 | 5 | 196 | 0.0 | 0.0 | 0.00 | 0.18 | 0.18 | 92 | 1017.3 |
| 20260502025250 | 5 | 192 | 0.0 | 1.6 | 0.00 | 0.18 | 0.18 | 92 | 1017.3 |
| 20260502024747 | 5 | 188 | 1.6 | 1.6 | 0.00 | 0.18 | 0.18 | 92 | 1017.5 |
| 20260502024245 | 5 | 175 | 1.6 | 1.6 | 0.00 | 0.18 | 0.18 | 92 | 1017.3 |
| 20260502023743 | 5 | 175 | 0.0 | 1.6 | 0.00 | 0.18 | 0.18 | 91 | 1017.3 |
| 20260502023240 | 5 | 174 | 0.0 | 0.0 | 0.00 | 0.18 | 0.18 | 91 | 1017.1 |
| 20260502022738 | 5 | 199 | 0.0 | 0.0 | 0.00 | 0.18 | 0.18 | 91 | 1017.2 |
| 20260502022233 | 5 | 188 | 0.0 | 0.0 | 0.00 | 0.18 | 0.18 | 91 | 1017.1 |
| 20260502021731 | 5 | 188 | 0.0 | 1.6 | 0.00 | 0.18 | 0.18 | 91 | 1017.0 |
| 20260502021228 | 5 | 173 | 0.0 | 1.6 | 0.00 | 0.18 | 0.18 | 91 | 1016.8 |
| 20260502020725 | 5 | 173 | 0.0 | 1.6 | 0.00 | 0.18 | 0.18 | 91 | 1017.1 |
| 20260502020222 | 5 | 173 | 1.6 | 1.6 | 0.00 | 0.18 | 0.18 | 90 | 1017.0 |
| 20260502015720 | 5 | 173 | 0.0 | 1.6 | 0.00 | 0.18 | 0.18 | 90 | 1016.9 |
| 20260502015216 | 5 | 173 | 0.0 | 1.6 | 0.00 | 0.18 | 0.18 | 90 | 1016.9 |
| 20260502014714 | 5 | 173 | 1.6 | 1.6 | 0.00 | 0.18 | 0.18 | 90 | 1016.9 |
| 20260502014211 | 5 | 172 | 0.0 | 0.0 | 0.00 | 0.18 | 0.18 | 89 | 1016.8 |
| 20260502013707 | 5 | 172 | 0.0 | 0.0 | 0.00 | 0.18 | 0.18 | 88 | 1016.6 |
| 20260502013202 | 5 | 172 | 0.0 | 0.0 | 0.00 | 0.18 | 0.18 | 89 | 1016.2 |
| 20260502012700 | 5 | 173 | 0.0 | 0.0 | 0.00 | 0.18 | 0.18 | 87 | 1016.1 |
| 20260502012158 | 5 | 173 | 0.0 | 1.6 | 0.00 | 0.18 | 0.18 | 87 | 1016.2 |
| 20260502011654 | 5 | 172 | 0.0 | 0.0 | 0.00 | 0.18 | 0.18 | 88 | 1016.3 |
| 20260502011149 | 5 | 171 | 0.0 | 0.0 | 0.00 | 0.18 | 0.18 | 88 | 1016.2 |
| 20260502010648 | 5 | 171 | 0.0 | 1.6 | 0.00 | 0.18 | 0.18 | 86 | 1016.2 |
| 20260502010144 | 5 | 197 | 0.0 | 1.6 | 0.00 | 0.18 | 0.18 | 85 | 1016.2 |
| 20260502005641 | 6 | 197 | 0.0 | 1.6 | 0.00 | 0.18 | 0.18 | 84 | 1016.3 |
| 20260502005139 | 6 | 202 | 1.6 | 3.2 | 0.00 | 0.18 | 0.18 | 85 | 1016.3 |
| 20260502004635 | 6 | 210 | 0.0 | 3.2 | 0.00 | 0.18 | 0.18 | 83 | 1016.3 |
| 20260502004131 | 6 | 348 | 6.4 | 6.4 | 0.00 | 0.18 | 0.18 | 83 | 1016.4 |
| 20260502003630 | 6 | 275 | 3.2 | 6.4 | 0.00 | 0.18 | 0.18 | 84 | 1016.2 |
| 20260502003126 | 6 | 266 | 3.2 | 4.8 | 0.00 | 0.18 | 0.18 | 85 | 1016.6 |
| 20260502002622 | 6 | 221 | 1.6 | 3.2 | 0.00 | 0.18 | 0.18 | 87 | 1016.2 |
| 20260502002120 | 6 | 204 | 0.0 | 4.8 | 0.00 | 0.18 | 0.18 | 86 | 1016.3 |
| 20260502001618 | 6 | 187 | 0.0 | 0.0 | 0.00 | 0.18 | 0.18 | 86 | 1015.9 |
| 20260502001114 | 6 | 196 | 0.0 | 0.0 | 0.00 | 0.18 | 0.18 | 86 | 1015.9 |
| 20260502000613 | 6 | 205 | 1.6 | 1.6 | 0.00 | 0.18 | 0.18 | 84 | 1015.8 |
| 20260502000110 | 6 | 199 | 0.0 | 3.2 | 0.00 | 0.18 | 0.18 | 83 | 1015.8 |
| 20260501235605 | 6 | 243 | 3.2 | 3.2 | 0.00 | 0.18 | 0.18 | 84 | 1015.9 |
| 20260501235102 | 6 | 202 | 0.0 | 1.6 | 0.00 | 0.18 | 0.18 | 84 | 1015.7 |
| 20260501234557 | 6 | 187 | 0.0 | 3.2 | 0.00 | 0.18 | 0.18 | 83 | 1015.6 |
| 20260501234055 | 6 | 221 | 1.6 | 9.7 | 0.00 | 0.18 | 0.18 | 83 | 1015.4 |
| 20260501233553 | 6 | 257 | 4.8 | 9.7 | 0.00 | 0.18 | 0.18 | 83 | 1015.4 |
| 20260501233049 | 6 | 184 | 1.6 | 9.7 | 0.00 | 0.18 | 0.18 | 83 | 1015.3 |
| 20260501232546 | 6 | 110 | 3.2 | 3.2 | 0.00 | 0.18 | 0.18 | 83 | 1015.2 |
| 20260501232043 | 7 | 291 | 6.4 | 9.7 | 0.00 | 0.18 | 0.18 | 80 | 1015.2 |
| 20260501231541 | 7 | 172 | 3.2 | 9.7 | 0.00 | 0.18 | 0.18 | 81 | 1015.1 |
| 20260501231039 | 8 | 134 | 1.6 | 9.7 | 0.00 | 0.18 | 0.18 | 80 | 1014.9 |
| 20260501230538 | 7 | 286 | 6.4 | 9.7 | 0.00 | 0.18 | 0.18 | 80 | 1015.2 |
| 20260501230035 | 7 | 266 | 3.2 | 6.4 | 0.00 | 0.18 | 0.18 | 83 | 1015.2 |
| 20260501225532 | 7 | 83 | 1.6 | 6.4 | 0.00 | 0.18 | 0.18 | 83 | 1015.3 |
| 20260501225028 | 8 | 191 | 1.6 | 6.4 | 0.00 | 0.18 | 0.18 | 81 | 1015.3 |
| 20260501224526 | 7 | 295 | 4.8 | 12.9 | 0.00 | 0.18 | 0.18 | 81 | 1015.1 |
| 20260501224023 | 7 | 284 | 3.2 | 9.7 | 0.00 | 0.18 | 0.18 | 81 | 1015.2 |
| 20260501223520 | 7 | 244 | 9.7 | 14.5 | 0.00 | 0.18 | 0.18 | 79 | 1015.3 |
| 20260501223016 | 7 | 10 | 4.8 | 9.7 | 0.00 | 0.18 | 0.18 | 81 | 1015.4 |
| 20260501222512 | 7 | 18 | 3.2 | 6.4 | 0.00 | 0.18 | 0.18 | 84 | 1015.3 |
| 20260501222009 | 6 | 308 | 4.8 | 9.7 | 0.00 | 0.18 | 0.18 | 85 | 1015.3 |
| 20260501221505 | 6 | 229 | 4.8 | 11.3 | 0.00 | 0.18 | 0.18 | 84 | 1015.4 |
| 20260501221004 | 6 | 200 | 3.2 | 14.5 | 0.00 | 0.18 | 0.18 | 83 | 1015.3 |
| 20260501220501 | 6 | 252 | 3.2 | 17.7 | 0.00 | 0.18 | 0.18 | 85 | 1015.3 |
| 20260501215957 | 6 | 268 | 8.0 | 9.7 | 0.00 | 0.18 | 0.18 | 85 | 1015.3 |
| 20260501215454 | 6 | 275 | 6.4 | 11.3 | 0.00 | 0.18 | 0.18 | 85 | 1015.1 |
| 20260501214949 | 6 | 280 | 3.2 | 11.3 | 0.00 | 0.18 | 0.18 | 85 | 1015.0 |
| 20260501214444 | 6 | 110 | 3.2 | 20.9 | 0.00 | 0.18 | 0.18 | 85 | 1014.8 |
| 20260501213940 | 6 | 294 | 9.7 | 11.3 | 0.00 | 0.18 | 0.18 | 86 | 1014.7 |
| 20260501213438 | 6 | 224 | 1.6 | 9.7 | 0.00 | 0.18 | 0.18 | 86 | 1014.7 |
| 20260501212933 | 6 | 24 | 9.7 | 12.9 | 0.00 | 0.18 | 0.18 | 85 | 1014.7 |
| 20260501212430 | 6 | 227 | 3.2 | 12.9 | 0.00 | 0.18 | 0.18 | 85 | 1014.5 |
| 20260501211927 | 7 | 79 | 3.2 | 14.5 | 0.00 | 0.18 | 0.18 | 83 | 1014.4 |
| 20260501211424 | 7 | 198 | 3.2 | 9.7 | 0.00 | 0.18 | 0.18 | 85 | 1014.4 |
| 20260501210921 | 7 | 302 | 4.8 | 12.9 | 0.00 | 0.18 | 0.18 | 85 | 1014.3 |
| 20260501210418 | 6 | 285 | 6.4 | 14.5 | 0.00 | 0.18 | 0.18 | 85 | 1014.6 |
| 20260501205915 | 6 | 264 | 8.0 | 11.3 | 0.00 | 0.18 | 0.18 | 86 | 1014.3 |
| 20260501205412 | 6 | 30 | 9.7 | 17.7 | 0.00 | 0.18 | 0.18 | 86 | 1014.1 |
| 20260501204909 | 6 | 327 | 4.8 | 9.7 | 0.00 | 0.18 | 0.18 | 87 | 1014.3 |
| 20260501204405 | 6 | 257 | 6.4 | 11.3 | 0.00 | 0.18 | 0.18 | 88 | 1014.3 |
| 20260501203901 | 6 | 236 | 6.4 | 12.9 | 0.00 | 0.18 | 0.18 | 87 | 1014.2 |
| 20260501203358 | 6 | 22 | 6.4 | 9.7 | 0.00 | 0.18 | 0.18 | 88 | 1014.0 |
| 20260501202855 | 6 | 272 | 6.4 | 20.9 | 0.00 | 0.18 | 0.18 | 88 | 1014.2 |
| 20260501202352 | 6 | 227 | 8.0 | 14.5 | 0.00 | 0.18 | 0.18 | 89 | 1014.1 |
| 20260501201849 | 6 | 309 | 11.3 | 16.1 | 0.00 | 0.18 | 0.18 | 88 | 1014.2 |
| 20260501201346 | 6 | 288 | 11.3 | 17.7 | 0.00 | 0.18 | 0.18 | 87 | 1014.1 |
| 20260501200842 | 6 | 272 | 11.3 | 17.7 | 0.00 | 0.18 | 0.18 | 87 | 1013.8 |
| 20260501200339 | 6 | 257 | 8.0 | 11.3 | 0.00 | 0.18 | 0.18 | 88 | 1013.8 |
| 20260501195838 | 6 | 292 | 3.2 | 16.1 | 0.00 | 0.18 | 0.18 | 90 | 1013.8 |
| 20260501195333 | 6 | 69 | 14.5 | 22.5 | 0.00 | 0.18 | 0.18 | 90 | 1013.9 |